GFSNGP_250_rhum_057.txt.gz
RH
93 90 73 60 53 32 30 27 25 22 35 33 51 56 55 55 58 44 50 53 47 41 46 55 61 64 68 69 67 74 85 76 66 57 54 68 63 64 70 65 61 66 67 70
96 85 72 38 33 28 25 23 28 41 63 50 50 57 67 76 68 64 77 75 76 82 76 78 70 68 70 75 85 89 69 59 58 64 70 66 66 72 71 68 65 67 70 69
94 85 53 47 30 30 33 39 48 62 63 64 54 59 61 58 60 63 61 61 68 76 74 66 69 82 87 83 65 52 64 73 80 71 65 64 75 80 73 65 68 77 71 71
90 79 52 39 40 35 41 34 49 77 78 66 61 59 65 69 70 67 76 82 84 70 63 75 80 75 70 52 59 71 78 81 69 64 63 73 80 86 78 80 76 68 72 77
93 82 51 42 51 43 44 41 66 83 75 79 80 74 69 72 84 88 96 92 72 75 87 86 78 68 64 69 73 73 79 66 65 68 75 93 93 72 73 66 65 72 67 58
93 82 48 49 53 46 45 57 70 66 75 79 78 74 71 73 70 71 69 70 83 97 96 81 73 77 79 77 80 80 64 64 70 77 93 95 70 63 65 68 71 72 69 45
92 92 58 52 59 49 53 54 62 64 71 72 67 66 58 63 69 66 72 91 99 86 76 78 86 93 96 94 80 64 63 73 76 85 96 74 61 64 70 74 76 78 54 30
98 90 74 62 61 58 53 60 62 70 72 69 67 68 67 69 68 85 100 100 92 89 100 100 98 94 94 77 63 64 72 76 80 85 75 69 67 76 76 72 63 36 27 19
100 97 79 63 65 66 51 55 62 63 62 63 64 61 63 73 100 100 94 93 98 99 90 92 88 88 73 63 65 71 74 75 74 71 72 69 80 78 75 44 26 22 17 12
96 89 85 64 69 64 61 64 64 65 70 73 68 73 98 100 100 100 100 100 100 97 97 84 77 70 62 67 78 76 76 74 75 74 67 78 75 64 43 30 20 15 11 9
98 84 86 78 71 66 66 64 70 78 85 91 100 100 98 99 100 100 100 100 98 93 76 73 72 68 71 83 86 82 72 77 73 66 73 72 56 33 23 20 14 12 10 8
85 93 82 81 84 90 86 85 89 93 100 100 99 92 90 89 96 97 92 83 79 73 74 73 70 75 82 87 78 72 77 74 63 69 66 47 29 19 16 13 11 10 8 7
98 92 94 93 84 80 79 85 100 100 100 97 89 85 92 100 97 98 90 82 72 74 75 74 82 82 76 69 73 76 73 66 67 63 49 30 19 15 11 10 10 9 6 6
86 98 100 100 94 93 93 97 97 94 89 86 86 94 100 100 97 88 86 81 78 77 80 88 80 71 68 73 72 70 63 62 52 34 22 15 12 10 8 8 9 8 5 5
100 100 100 100 100 100 100 100 94 92 96 97 100 100 100 98 99 89 86 80 80 90 82 68 71 68 69 70 68 60 56 42 25 17 13 10 8 8 7 6 6 6 5 5
100 98 93 92 91 87 90 91 93 93 96 100 100 100 100 93 90 86 77 84 86 68 70 68 68 72 74 68 59 53 36 21 16 12 9 8 7 6 5 4 4 5 6 6
100 100 96 94 95 100 99 100 99 94 100 100 99 97 92 90 79 78 76 69 63 73 63 70 71 76 67 53 44 29 18 15 11 8 7 6 5 4 4 4 5 5 5 4
100 100 100 100 100 100 100 100 100 100 100 99 90 90 84 77 74 71 66 72 74 62 70 73 76 61 49 38 22 15 13 10 8 7 6 5 4 4 4 4 4 4 4 4
100 100 100 100 100 100 100 100 99 93 90 92 87 78 70 69 72 69 80 68 68 77 80 74 51 43 34 20 14 11 9 8 7 5 4 4 4 5 4 4 4 3 4 4
100 100 100 100 100 98 90 90 98 99 91 82 75 70 74 72 80 75 66 72 77 76 64 43 35 22 14 11 9 8 8 6 4 4 4 4 4 4 4 4 3 4 4 4
98 93 92 91 95 98 97 88 88 85 80 78 76 72 80 84 69 75 80 79 73 58 42 27 17 12 10 8 8 7 6 4 4 4 4 4 4 3 3 3 4 4 3 3
93 96 98 94 86 81 79 78 81 88 86 78 81 90 76 76 83 81 77 66 45 33 22 14 10 9 8 8 6 5 4 4 4 4 4 3 3 3 3 3 3 2 2 2
100 96 90 82 84 88 86 87 88 85 85 88 76 75 84 85 80 70 50 36 25 18 14 10 9 8 7 6 4 4 4 4 4 3 3 3 3 3 3 2 2 2 2 2
96 88 86 87 87 85 83 85 85 79 74 78 80 89 85 75 52 38 28 19 16 11 8 8 8 6 5 4 4 4 4 3 3 3 3 3 3 3 2 2 2 2 2 2
85 86 88 84 80 75 72 72 78 81 83 91 88 71 50 38 34 23 17 14 10 9 8 7 6 4 4 4 4 4 3 3 3 3 3 3 2 2 2 2 2 2 2 2
78 75 77 76 76 77 76 75 80 88 85 64 45 36 32 24 17 15 11 9 8 8 6 5 4 4 4 4 3 3 3 3 3 3 2 2 2 2 2 2 2 2 2 2
77 76 74 70 70 77 85 79 72 58 42 33 26 21 16 15 13 10 8 8 7 6 4 4 4 4 4 3 3 3 3 2 2 2 2 2 2 2 2 2 2 2 2 2

GFSNGP_250_rhum_063.txt.gz
RH
47 46 33 31 52 46 54 62 50 65 64 44 30 30 30 28 28 39 43 50 57 59 59 70 72 66 69 70 67 66 65 61 66 64 54 60 65 63 58 58 73 85 80 80
49 42 41 30 39 53 42 41 55 78 61 35 30 27 26 32 49 69 71 68 61 63 63 62 66 71 67 68 73 64 63 64 58 63 64 60 60 57 70 86 90 78 81 82
56 44 45 40 78 54 56 44 62 75 52 35 31 31 35 52 66 68 69 69 71 73 75 80 91 88 87 72 65 60 60 66 62 61 58 65 75 86 92 85 80 84 79 74
57 44 49 54 49 79 83 78 71 74 64 43 36 36 44 54 58 60 63 67 71 75 84 86 83 69 60 57 60 65 67 64 66 71 85 90 87 88 81 86 89 78 80 68
52 45 50 51 44 84 91 91 87 75 70 59 45 45 52 54 58 57 55 58 66 67 55 47 51 59 64 66 72 66 70 79 86 91 94 88 89 82 89 86 78 82 69 74
54 47 46 63 42 54 76 97 85 75 74 72 64 55 54 51 50 48 50 57 58 56 56 54 58 64 72 72 73 85 90 91 95 98 96 84 86 91 86 71 78 71 75 74
52 46 52 68 48 40 91 96 84 85 84 84 83 78 74 68 63 60 59 57 58 59 60 61 69 86 83 81 87 92 95 99 97 94 83 84 88 87 68 75 74 74 74 62
63 61 55 75 60 51 64 88 89 96 87 76 90 95 90 83 78 71 67 63 62 62 63 71 89 90 91 94 99 100 100 94 91 86 80 86 90 76 77 79 75 78 63 50
71 64 62 78 77 64 76 92 90 99 94 88 97 86 86 85 75 73 75 76 76 84 94 100 100 100 97 100 100 100 91 92 85 80 85 92 85 78 78 75 78 70 54 39
71 88 75 75 82 78 99 100 99 100 100 100 96 93 90 93 99 99 96 97 100 100 100 96 95 100 100 100 99 92 93 83 81 89 99 90 76 72 71 78 70 49 39 26
93 89 69 89 90 76 97 100 100 100 100 100 99 96 92 96 98 96 99 100 99 98 100 100 100 100 100 96 87 86 82 81 87 88 84 79 75 75 77 75 56 42 31 20
94 84 78 81 74 70 81 100 100 100 100 100 100 100 100 100 100 100 100 100 100 100 100 100 100 95 87 78 82 82 79 87 82 83 79 74 76 82 80 66 45 31 23 15
100 80 84 87 75 58 77 100 100 100 100 98 99 100 97 95 100 100 100 100 100 100 100 96 86 72 73 80 80 85 91 75 79 74 71 78 80 62 38 36 30 22 15 11
92 82 69 90 92 72 63 94 100 100 100 100 100 100 100 100 100 100 100 100 100 100 93 76 70 78 84 79 84 92 74 71 68 69 74 66 51 34 26 18 13 13 12 8
80 77 65 63 78 82 86 71 88 99 100 100 100 100 100 100 100 100 100 100 94 78 71 76 85 87 84 87 87 75 70 68 71 74 61 48 29 24 20 14 11 8 6 5
64 51 51 61 70 78 82 74 79 100 100 100 100 100 100 100 100 99 92 83 75 76 88 88 87 92 84 82 72 69 70 70 68 55 40 28 23 18 14 10 8 6 4 4
72 68 75 82 90 99 81 77 80 98 100 100 100 100 100 98 91 89 84 81 85 90 88 94 86 76 76 70 70 71 73 66 51 32 25 22 18 13 10 7 5 4 4 5
96 97 100 100 99 90 84 95 98 99 100 99 99 99 95 88 89 88 89 91 85 91 88 74 73 73 70 70 71 71 58 42 31 25 20 16 11 9 6 5 4 4 5 4
100 100 100 100 95 89 95 99 98 94 94 93 86 80 83 90 92 86 82 88 86 76 73 70 70 68 71 71 63 48 38 28 21 17 14 10 8 6 4 4 4 4 4 3
100 100 99 99 95 94 90 97 98 95 90 85 84 88 90 89 87 87 81 74 70 67 70 69 71 71 68 52 43 32 24 19 15 12 10 8 6 4 4 4 4 3 3 2
90 95 98 100 96 94 95 95 94 91 91 94 95 96 92 87 80 72 69 68 67 69 69 74 71 57 42 36 27 21 17 14 11 9 7 5 4 4 4 4 3 3 2 2
93 94 91 91 88 86 82 84 96 100 99 98 95 88 79 72 67 65 67 68 67 71 73 65 49 39 28 22 18 15 14 10 8 6 5 4 4 4 4 3 3 2 2 2
83 85 87 87 86 86 92 99 100 97 90 80 74 71 71 72 69 67 67 72 72 71 55 42 28 22 20 17 15 12 9 7 5 4 4 4 4 3 3 2 2 2 2 2
94 94 96 98 98 91 87 83 76 71 72 72 72 71 69 67 66 68 68 67 55 40 30 22 21 19 16 14 11 8 6 5 4 4 4 4 3 2 2 2 2 2 2 2
96 95 90 83 75 70 66 67 72 76 73 73 74 72 70 69 64 61 52 39 30 24 22 20 17 14 12 10 7 5 4 4 4 4 3 3 2 2 2 2 2 2 2 2
77 76 73 70 69 73 79 83 81 79 79 77 72 70 66 59 49 38 31 25 22 21 18 14 12 10 8 6 4 4 4 4 3 3 2 2 2 2 2 2 2 2 2 2
86 86 84 82 80 80 81 82 80 73 67 64 59 50 42 35 31 27 22 20 17 14 13 9 7 6 4 4 4 4 3 3 2 2 2 2 2 2 2 2 2 2 1 1

GFSNGP_250_rhum_066.txt.gz
RH
64 52 47 44 42 37 28 43 62 59 96 78 57 57 52 36 30 26 23 24 26 29 48 48 62 84 89 78 86 88 82 91 84 70 69 70 62 62 66 73 65 59 68 78
62 55 48 55 55 41 40 26 38 70 100 73 65 56 44 34 32 28 26 25 25 33 44 68 82 84 78 82 82 85 89 86 81 72 70 65 70 70 76 62 59 74 83 87
73 59 56 70 53 42 37 37 44 85 98 81 58 62 56 39 36 38 40 44 48 53 60 73 78 82 88 87 98 98 91 92 79 74 73 79 81 79 67 67 79 86 90 81
80 59 74 74 57 46 37 41 38 90 91 69 61 74 71 50 41 42 49 55 65 72 80 91 93 94 98 100 97 97 88 72 72 82 90 83 78 74 74 79 82 89 82 94
76 84 77 95 70 53 44 45 47 46 71 87 98 86 75 68 54 44 44 50 57 64 71 76 81 85 87 88 86 78 72 78 88 92 81 80 80 76 78 81 91 83 97 95
88 85 98 100 71 50 48 52 39 39 57 84 96 100 81 77 77 71 60 56 58 62 66 67 65 66 68 69 75 78 79 90 82 77 83 76 74 78 89 94 87 99 88 83
90 89 97 100 83 60 53 53 50 52 58 88 98 99 92 87 83 80 83 82 79 78 78 77 77 80 82 84 87 89 79 75 83 80 72 74 83 90 88 88 100 89 84 92
99 83 78 88 87 61 59 54 51 58 60 71 97 100 100 97 93 86 90 83 79 82 86 86 87 90 93 91 87 86 82 79 74 74 76 83 88 92 86 92 96 86 86 82
86 95 89 100 87 77 68 64 53 67 64 60 92 100 100 98 98 95 95 98 97 100 100 97 95 97 94 94 87 78 81 80 77 81 86 90 96 89 97 99 94 86 77 71
86 89 100 100 100 76 75 65 57 68 77 78 77 96 100 100 100 98 96 100 100 100 100 100 100 100 100 98 89 88 82 83 82 89 94 96 92 94 100 92 82 74 68 58
94 100 100 100 90 87 83 66 56 73 84 70 73 91 100 100 100 100 100 100 100 100 99 100 100 99 98 97 90 85 82 81 87 95 100 95 96 95 93 88 75 69 61 41
99 100 94 100 97 95 82 67 64 80 86 54 55 62 82 87 97 100 100 100 100 100 100 100 100 100 100 95 90 83 83 91 96 100 92 94 86 92 88 80 80 67 46 29
100 93 87 94 100 94 68 71 66 78 87 83 74 82 94 92 91 96 100 100 100 100 100 100 100 96 93 89 90 94 94 92 98 88 90 81 80 76 76 81 69 52 34 22
100 96 100 100 99 73 73 94 97 99 87 79 81 91 100 98 100 100 100 100 100 100 100 98 95 91 87 93 95 94 94 91 86 87 79 75 73 71 58 45 31 27 24 18
87 98 100 100 90 76 77 90 79 84 85 81 82 92 100 100 100 99 100 100 99 95 90 90 86 90 96 95 95 92 83 89 83 77 71 71 68 58 44 26 19 16 14 12
86 94 96 80 80 77 84 87 88 94 95 80 86 100 100 100 98 96 96 93 91 92 89 87 91 92 93 95 87 91 90 81 74 69 72 65 56 38 22 19 16 13 9 7
90 85 86 88 84 66 76 80 92 95 72 75 95 96 96 94 81 75 80 91 97 96 96 93 92 97 94 91 96 86 78 71 72 69 53 49 29 21 18 15 13 9 6 5
78 76 76 79 79 78 90 100 100 100 97 92 96 90 87 84 86 92 97 98 97 94 94 98 97 94 99 90 82 76 74 69 54 46 41 26 21 17 14 11 8 6 5 4
100 100 100 100 100 100 100 100 100 100 99 95 84 90 87 90 92 92 92 92 98 100 100 98 100 92 82 79 77 70 59 46 43 31 25 21 16 13 10 7 5 4 4 5
100 100 92 84 84 95 96 83 91 88 84 82 87 89 88 92 91 89 91 100 100 100 100 95 85 82 78 72 62 52 46 42 28 24 20 15 12 10 7 5 4 5 5 4
96 92 96 100 94 80 75 76 74 83 89 93 99 99 92 88 90 99 100 100 100 94 87 83 75 72 68 58 51 48 34 26 23 19 14 12 9 6 5 4 5 4 3 3
100 100 100 86 83 96 94 89 92 97 97 96 93 94 96 98 99 100 100 98 90 82 75 73 68 62 56 49 41 29 25 21 17 13 11 8 6 4 4 4 4 3 2 2
97 100 89 77 76 81 84 89 92 94 94 95 97 99 100 100 97 86 82 79 76 72 68 63 55 49 41 30 25 22 18 14 11 9 7 5 4 4 4 3 3 2 2 2
87 80 70 84 89 91 90 85 88 96 100 100 100 96 85 80 77 74 72 70 67 64 55 44 40 29 23 22 19 14 11 9 8 6 4 4 4 4 3 2 2 2 2 2
74 81 83 92 97 96 93 94 99 96 85 78 78 82 80 74 68 67 64 58 49 41 36 29 24 21 18 14 12 10 8 6 4 4 4 4 3 2 2 2 2 2 2 2
77 84 84 83 86 89 93 88 77 76 79 81 76 70 67 64 60 55 46 36 31 25 21 18 16 13 11 10 8 6 4 4 4 4 3 2 2 2 2 2 2 2 2 2
72 76 81 83 80 80 82 84 82 76 73 72 67 56 51 46 38 33 28 24 19 17 15 12 10 9 8 6 4 4 3 3 3 2 2 2 2 2 2 2 2 2 1 1

GFSNGP_250_rhum_069.txt.gz
RH
63 52 59 49 60 44 58 53 39 40 44 49 47 52 77 83 79 72 68 49 31 28 24 22 21 29 57 91 96 87 73 67 70 71 76 85 100 63 71 72 78 72 76 85
61 57 59 58 57 57 54 67 50 40 45 34 42 47 63 63 75 72 56 37 30 29 26 25 30 72 91 99 90 75 73 78 87 93 93 94 97 99 95 94 75 79 85 78
70 64 62 95 54 61 50 66 59 55 48 42 37 55 73 80 79 68 65 52 40 37 38 38 44 51 55 60 63 72 78 80 86 91 94 99 99 89 77 83 88 88 78 72
73 79 76 83 86 58 60 63 56 48 58 48 47 66 100 96 88 74 78 74 59 50 52 57 58 62 62 65 70 74 79 83 83 88 94 90 86 88 92 98 85 75 72 76
79 86 92 100 71 70 59 83 49 56 53 56 51 53 84 100 100 96 86 82 79 77 78 79 78 78 79 82 83 82 84 86 91 95 92 94 100 100 94 80 71 67 76 89
99 89 83 100 100 71 60 91 68 59 60 58 58 51 54 63 100 100 100 98 85 82 83 86 86 87 86 85 86 89 90 90 92 93 98 100 100 95 76 64 65 76 86 90
86 81 86 100 100 65 82 85 83 70 68 56 66 56 63 62 66 93 100 100 100 96 88 86 87 90 94 96 98 96 93 94 97 100 100 100 95 76 64 70 80 86 98 100
89 80 100 90 93 100 83 92 90 89 74 62 66 64 58 76 78 63 88 98 100 100 100 95 92 94 100 100 100 99 100 100 100 100 100 93 80 71 71 84 96 98 99 100
75 72 73 85 94 100 97 86 98 93 80 61 60 62 58 70 69 68 70 90 98 100 100 100 98 97 98 99 100 100 100 100 100 92 83 78 70 72 86 97 97 99 99 91
68 64 64 80 100 99 76 98 100 97 75 69 60 62 65 61 82 54 62 69 76 84 93 98 99 100 100 100 100 100 98 83 75 70 67 74 80 90 98 97 98 95 82 84
60 64 64 66 88 76 77 100 95 88 87 74 59 64 70 79 82 97 82 78 82 87 86 89 94 95 98 99 96 90 85 78 79 84 85 87 96 100 97 95 89 84 82 76
58 62 72 94 99 93 99 92 92 88 83 82 78 92 82 84 90 90 94 95 82 74 76 86 82 78 78 80 79 75 75 79 83 86 95 100 100 99 99 95 89 84 75 67
60 65 90 100 100 98 86 78 73 85 75 72 96 97 82 99 96 85 99 95 82 76 76 82 79 75 78 81 86 93 97 96 100 100 100 98 100 100 99 98 92 82 75 55
62 91 100 100 92 90 81 77 75 68 68 92 100 100 99 85 79 82 94 86 80 75 82 88 92 90 91 96 97 96 99 100 100 98 100 100 99 96 95 82 80 74 57 37
79 100 95 88 93 85 84 97 98 99 96 99 100 99 94 95 68 93 100 98 80 80 91 94 96 95 96 100 100 100 100 100 97 96 98 93 92 87 77 75 61 49 28 22
70 77 95 84 82 81 98 99 83 90 96 98 97 92 72 59 65 89 72 79 80 89 87 91 93 94 99 97 94 94 97 96 92 91 92 89 78 72 65 50 39 21 18 14
100 100 95 84 72 78 77 77 73 83 87 67 57 58 65 62 58 71 81 73 73 70 74 78 87 96 92 92 96 94 93 93 86 89 87 76 68 54 43 28 20 17 11 9
98 97 89 92 98 93 84 82 83 85 68 80 86 88 94 98 99 92 89 80 80 83 85 94 97 96 98 100 96 91 88 86 88 82 72 63 46 38 23 19 16 11 9 8
100 100 100 100 97 96 90 83 95 100 100 100 100 97 100 92 93 99 92 90 95 98 96 97 98 100 98 91 91 91 89 82 71 65 49 40 31 22 19 14 10 8 7 6
100 100 95 94 90 90 97 100 100 100 100 100 100 85 100 98 92 96 84 75 84 95 99 99 95 94 97 96 94 87 74 66 54 37 33 24 21 16 12 9 8 6 5 4
80 81 85 82 88 100 100 100 94 96 98 91 97 97 97 92 86 84 82 84 91 99 100 100 100 96 91 84 74 67 52 36 32 26 23 19 13 10 9 7 5 5 4 4
91 94 96 95 96 93 92 92 95 97 93 85 80 82 81 78 89 95 96 100 100 100 98 95 87 78 71 63 51 40 35 26 23 20 15 12 10 8 6 5 4 4 3 3
77 84 89 92 92 86 86 85 91 83 64 65 75 86 92 95 98 100 100 100 98 96 86 75 67 58 46 37 34 27 23 19 15 12 10 8 6 4 4 4 3 3 2 2
92 95 97 95 92 88 87 84 62 65 77 83 90 94 95 97 97 96 92 87 83 71 62 55 42 39 36 28 22 18 14 11 9 8 6 4 4 4 3 3 2 2 2 2
95 96 97 95 84 60 57 65 74 82 83 84 83 81 83 86 85 79 70 62 59 51 43 38 34 26 20 17 13 11 9 7 6 4 4 4 3 3 2 2 2 2 2 2
85 75 54 48 55 58 61 64 66 66 65 70 71 69 67 63 59 58 54 47 41 36 31 21 17 14 11 10 9 7 5 4 4 3 3 3 2 2 2 2 2 2 2 2
40 40 52 62 65 67 65 62 66 72 67 61 61 58 55 52 49 44 36 30 23 16 13 11 9 8 7 5 4 3 3 3 3 2 2 2 2 2 2 2 2 2 1 1

GFSNGP_250_rhum_072.txt.gz
RH
87 72 87 67 73 46 52 49 58 58 54 43 47 43 40 44 76 71 84 95 75 73 70 56 46 36 31 28 35 62 77 100 100 100 100 100 100 100 100 100 91 100 99 100
100 100 81 69 90 55 58 54 57 62 51 57 49 47 44 46 49 61 92 100 91 80 75 60 41 34 39 42 70 88 98 99 100 100 100 100 100 88 89 91 100 97 100 100
100 89 75 90 75 76 71 69 56 61 60 61 58 51 49 49 46 62 88 100 100 98 81 69 63 49 63 52 72 76 77 81 76 72 72 77 81 87 99 100 100 100 97 99
100 92 89 100 91 91 85 83 50 57 75 65 62 62 58 54 59 54 58 93 99 100 100 93 79 76 68 60 55 54 57 63 69 74 79 88 97 97 96 97 100 100 100 100
88 100 89 100 100 87 94 98 56 58 76 80 70 68 65 57 68 64 53 66 88 100 100 100 100 90 87 86 85 85 86 88 92 96 98 100 100 100 100 100 100 100 100 98
72 93 100 100 100 94 80 100 51 85 71 85 78 82 72 66 59 63 66 63 70 68 89 100 100 100 100 100 100 100 99 97 96 98 100 98 100 100 100 100 100 100 94 87
78 85 100 100 100 94 68 89 65 79 78 88 82 91 94 77 64 63 66 72 76 74 72 69 87 100 100 100 100 100 100 100 100 100 99 100 100 100 100 98 93 88 88 86
69 91 100 100 100 76 72 73 81 72 81 98 88 89 97 97 75 64 59 80 84 77 64 70 85 95 99 100 100 100 100 100 99 100 100 100 99 99 100 100 100 98 88 89
90 88 100 97 95 76 73 75 74 85 90 77 85 100 100 94 78 71 63 62 82 80 95 100 99 86 84 88 86 83 84 87 88 90 97 100 100 100 99 90 88 88 92 95
90 97 94 83 78 72 79 82 74 88 95 67 88 96 100 90 86 86 68 62 78 68 74 88 94 98 100 90 81 80 74 80 84 87 94 97 95 90 88 89 86 86 87 89
100 100 100 100 90 89 97 78 65 98 99 81 83 78 84 81 85 100 84 83 90 89 88 81 78 71 76 73 70 76 74 64 75 88 87 86 83 84 86 89 90 86 82 81
100 100 100 99 100 96 81 67 70 100 98 89 83 72 82 77 96 96 80 93 98 100 96 77 73 64 64 67 77 76 81 84 81 79 83 91 95 98 95 87 87 85 81 77
100 100 98 94 87 87 76 63 79 78 85 78 81 95 68 65 82 79 89 100 100 92 81 66 70 77 80 82 88 88 86 81 82 91 100 100 98 93 88 91 89 81 78 77
99 85 81 72 67 62 62 63 64 72 70 75 68 71 85 93 97 100 96 92 81 70 70 81 75 69 73 80 72 70 79 86 93 96 95 96 96 95 92 87 79 81 81 74
89 82 76 66 62 68 67 61 67 67 69 73 93 99 83 95 95 86 80 84 81 74 81 63 56 48 70 81 80 77 81 91 93 93 93 94 92 83 78 84 88 81 72 56
83 78 76 79 78 74 72 72 73 71 74 80 80 82 83 74 82 76 77 80 74 56 70 81 98 88 74 80 88 85 87 83 85 88 88 80 77 87 90 81 70 58 40 34
81 82 83 86 86 85 82 72 65 76 74 78 91 86 86 81 80 88 68 76 100 100 100 100 93 94 98 100 98 96 84 79 82 85 90 96 94 90 76 58 45 36 33 24
96 97 100 100 99 92 78 80 76 78 89 92 77 90 93 81 84 100 100 100 100 98 99 98 92 88 95 91 82 80 84 92 94 93 94 96 84 58 47 40 36 28 20 16
91 100 100 100 100 100 100 100 100 98 98 100 99 100 100 100 100 100 100 100 97 93 91 70 81 91 89 89 94 95 94 95 94 94 80 61 49 43 37 29 22 16 12 10
73 75 96 99 98 92 89 97 100 100 100 100 100 99 100 100 97 97 91 90 87 84 77 79 86 88 90 89 91 95 96 94 79 60 50 45 37 28 23 18 13 10 9 6
60 67 74 73 69 74 77 100 100 100 100 93 90 91 94 90 91 88 85 83 71 66 78 85 90 91 92 98 96 86 66 56 51 46 39 27 21 18 14 11 9 7 5 4
58 58 60 67 74 79 91 99 100 99 85 85 94 94 92 88 81 76 64 59 74 87 93 95 97 92 78 64 55 53 53 47 37 28 22 18 15 11 9 7 5 4 4 3
57 60 68 76 92 97 98 91 81 76 85 84 79 82 80 72 69 65 78 84 86 85 82 75 65 59 54 54 50 42 33 25 20 17 13 10 8 6 5 4 4 3 3 2
62 63 67 66 62 63 67 77 76 72 74 70 73 70 68 65 66 77 82 83 76 69 63 57 52 49 44 35 26 21 18 16 12 10 8 6 5 4 3 3 2 2 2 2
52 59 55 53 61 75 75 79 79 80 71 62 62 60 64 74 79 78 71 63 57 52 46 43 37 28 21 17 15 14 10 8 7 5 4 4 3 3 2 2 2 2 2 2
63 68 79 82 78 76 70 62 59 58 58 64 74 77 73 67 62 58 52 44 38 35 28 21 17 14 12 11 9 7 6 4 3 3 3 2 2 2 2 2 2 2 2 1
82 89 91 84 74 72 62 62 66 67 70 73 71 65 61 54 46 40 33 28 22 18 14 12 10 9 7 6 4 3 3 3 2 2 2 2 2 2 2 2 1 1 1 1

GFSNGP_250_rhum_075.txt.gz
RH
100 100 98 100 94 93 84 75 68 60 58 44 47 51 52 48 46 45 41 39 60 74 72 85 85 82 72 69 61 56 41 36 38 40 46 59 74 97 100 100 100 100 100 100
100 100 100 100 100 98 88 88 68 69 62 48 43 46 49 51 55 50 52 51 50 46 56 99 100 100 91 90 83 82 71 71 71 64 59 92 100 100 100 100 100 94 96 100
100 100 100 100 100 98 96 97 74 85 72 50 46 41 45 51 55 50 55 52 52 51 51 67 95 100 100 100 97 92 84 97 96 90 91 91 90 92 97 100 100 100 100 100
100 100 99 100 100 100 100 100 87 94 76 75 51 46 52 62 58 61 72 63 58 55 59 56 56 63 69 91 100 100 99 91 91 95 97 95 94 98 100 100 100 100 100 100
100 100 100 100 100 100 100 100 92 83 100 96 57 60 59 80 70 78 84 76 67 66 59 64 69 64 68 72 78 100 100 100 100 100 100 100 100 100 100 99 94 95 100 100
82 100 100 100 100 100 100 100 84 86 91 77 68 82 82 96 91 85 100 100 80 67 70 69 65 72 67 58 60 73 89 100 100 100 100 100 99 99 91 88 88 89 95 95
79 87 100 100 100 100 98 100 71 84 79 92 76 85 96 94 84 89 100 99 91 79 79 88 73 63 67 79 84 77 74 86 95 97 95 92 88 86 88 84 84 87 84 88
96 87 92 100 100 100 100 100 90 82 74 74 78 83 96 86 68 86 90 100 90 92 88 92 85 75 63 59 69 80 85 88 86 79 73 71 71 73 77 77 79 86 90 95
98 98 99 96 100 100 100 89 80 79 86 84 80 95 88 97 96 99 100 99 93 97 85 83 96 89 82 92 89 86 68 66 70 74 81 88 90 88 86 85 85 85 94 96
100 98 95 88 96 88 96 82 82 88 90 87 98 99 79 96 100 100 100 98 97 91 84 81 90 97 87 87 100 76 65 72 75 80 80 82 85 83 87 92 91 94 100 100
100 96 82 67 76 89 94 94 99 91 85 96 92 86 75 72 84 100 100 100 99 94 79 88 96 88 84 92 94 90 85 82 71 75 68 70 80 82 83 90 91 94 96 93
100 94 82 80 81 88 100 93 90 99 98 86 92 82 61 54 66 93 99 99 100 86 87 94 96 87 92 97 97 95 79 83 75 58 54 62 73 74 75 85 92 89 86 86
100 97 100 100 100 100 97 93 100 96 86 90 73 62 57 56 64 67 67 80 83 88 91 84 81 91 97 80 83 91 71 72 66 73 72 61 73 77 80 97 94 91 86 78
100 100 100 100 100 100 100 100 93 95 82 74 68 60 64 66 68 65 74 82 92 84 80 86 85 77 81 91 75 49 76 89 97 96 82 78 88 92 88 85 78 69 72 82
100 100 100 100 100 100 100 97 93 85 79 69 66 69 71 72 74 72 82 91 85 82 84 75 73 77 68 56 86 99 100 99 98 85 77 82 85 84 79 78 73 73 74 70
100 100 100 100 100 100 100 90 88 84 74 76 79 82 84 87 84 77 80 86 82 72 71 64 67 74 100 100 100 100 100 97 78 63 73 85 86 88 83 78 77 76 74 62
100 100 100 100 100 100 94 88 84 83 80 84 93 91 92 94 77 76 83 78 82 80 83 94 100 100 100 100 100 100 94 75 63 78 91 88 83 80 82 80 77 65 54 42
100 100 100 100 100 98 95 86 87 86 86 96 98 93 77 77 89 95 96 99 100 100 100 100 100 100 100 100 94 83 70 66 81 87 76 75 82 82 76 64 55 47 37 28
100 100 100 98 93 88 84 90 89 87 95 99 91 96 99 100 98 100 100 100 100 100 100 100 100 97 89 84 78 66 67 76 73 69 80 82 75 59 51 45 38 29 21 16
99 98 95 92 92 96 97 93 91 92 88 78 77 83 87 93 98 98 99 99 97 100 100 100 93 84 74 61 62 66 67 69 77 77 67 56 50 45 39 30 21 16 11 9
98 97 96 94 96 95 88 87 90 86 67 61 63 66 70 77 76 79 90 90 96 94 87 80 71 61 59 57 61 67 70 67 59 53 49 43 36 28 19 15 12 9 7 6
100 100 100 100 94 81 83 86 80 66 59 56 53 59 66 70 83 90 90 85 83 74 62 54 50 55 62 60 57 56 51 48 46 39 30 22 16 12 10 8 7 5 4 4
99 99 93 76 72 72 70 66 60 56 53 54 61 69 75 78 70 69 69 63 54 48 49 50 53 55 52 46 44 43 41 34 25 19 14 10 8 7 6 5 4 4 3 2
84 74 72 74 73 66 60 54 55 63 60 55 57 68 66 61 61 58 57 53 52 52 54 52 49 45 41 41 37 28 20 14 10 9 8 6 5 4 3 3 3 2 2 2
68 75 75 68 60 52 52 58 60 64 64 65 63 62 58 50 51 49 48 49 48 48 50 47 42 37 29 22 15 11 9 8 7 6 5 4 3 3 2 2 2 2 2 2
50 51 52 51 52 53 56 59 63 63 62 58 56 53 57 51 50 49 49 52 50 45 39 30 23 18 12 9 8 7 6 5 4 3 3 2 2 2 2 2 2 1 1 2
55 52 50 52 53 54 57 59 57 51 49 51 60 55 57 58 56 51 48 44 33 26 18 12 9 8 8 6 5 4 3 3 2 2 2 2 2 2 2 1 1 1 1 1

GFSNGP_250_rhum_078.txt.gz
RH
60 83 76 98 100 100 100 96 91 64 82 70 64 62 46 45 44 44 43 46 44 44 47 44 39 40 40 41 47 63 79 75 88 72 68 80 68 62 58 64 88 99 100 100
59 84 100 100 100 100 100 100 100 77 86 70 71 71 53 44 42 44 47 49 48 48 48 52 51 49 55 68 72 70 76 84 86 98 98 92 77 72 75 75 72 83 86 92
74 77 92 87 100 100 100 100 100 93 98 89 73 71 60 46 43 51 52 48 49 54 52 56 62 59 66 63 66 55 50 52 58 67 87 98 100 96 96 96 96 93 94 94
89 100 74 100 100 100 100 100 100 100 100 89 90 88 70 56 52 55 58 54 47 53 64 77 56 61 64 63 65 63 59 54 48 55 74 96 100 100 100 100 100 100 100 100
100 98 93 99 100 100 100 100 100 100 100 96 100 95 75 72 69 73 72 77 58 64 74 80 80 79 81 77 67 57 63 66 64 70 82 82 88 97 100 100 100 90 82 75
95 96 90 100 100 100 100 100 100 100 100 100 100 86 92 79 79 78 85 96 77 80 88 96 90 86 89 84 74 72 70 68 66 69 73 72 60 58 61 65 68 68 67 73
78 84 93 100 100 100 100 100 100 100 92 96 90 87 95 95 93 88 89 99 99 86 83 85 94 95 80 82 83 76 84 79 83 73 72 76 85 83 78 67 72 73 69 68
100 87 80 99 98 100 100 100 100 99 93 91 86 100 98 100 100 84 100 93 75 89 96 97 100 97 99 95 96 88 84 86 89 86 82 83 81 86 79 69 77 84 78 70
100 100 97 95 74 100 99 100 100 89 74 59 76 84 95 100 92 99 99 84 77 73 83 100 100 100 100 98 100 92 86 91 90 91 93 91 80 88 76 76 74 82 72 73
100 100 100 100 100 97 92 94 100 77 68 77 76 76 100 100 85 82 87 78 75 62 62 76 89 92 86 93 100 90 86 90 88 82 80 78 87 88 83 78 78 82 86 73
100 100 100 100 100 85 93 86 81 80 75 76 93 100 100 92 87 96 80 79 70 62 64 63 63 65 72 92 97 91 82 84 81 75 74 79 85 82 81 81 87 88 86 73
93 100 100 100 99 99 92 92 88 85 92 90 90 98 84 77 99 92 88 76 64 61 66 67 72 76 73 80 90 88 81 77 73 79 77 74 81 83 93 98 99 90 81 69
98 84 86 100 96 84 91 94 95 95 87 75 76 74 65 80 100 100 87 74 62 66 67 75 82 81 79 80 79 78 72 74 86 77 81 74 78 93 100 100 98 88 70 71
100 100 100 96 90 97 96 98 97 90 87 82 66 69 100 100 100 98 83 71 62 63 79 81 86 89 80 76 79 73 69 86 74 86 85 89 100 99 100 94 80 66 71 86
100 100 100 91 82 78 75 77 88 99 96 95 100 100 100 100 100 96 79 63 71 80 84 93 99 84 82 76 69 76 71 70 91 98 97 100 100 100 96 75 68 64 71 72
100 100 100 100 100 100 100 100 100 100 100 100 100 100 100 100 93 81 70 69 80 82 97 97 81 70 86 100 94 100 100 100 100 99 100 100 97 90 80 66 62 73 73 62
100 100 100 98 96 96 100 100 100 100 100 100 100 100 100 96 84 74 69 78 83 90 83 71 77 99 100 100 100 100 100 100 100 100 98 93 86 72 55 57 65 65 54 48
99 95 91 94 95 97 97 98 99 100 100 100 100 100 95 82 68 75 86 85 86 85 79 94 99 99 94 97 100 100 100 99 89 90 79 64 51 51 59 58 57 50 45 39
86 87 91 93 78 78 100 100 100 100 100 100 100 92 82 83 81 86 89 98 100 89 78 71 72 74 80 92 95 89 78 79 76 60 53 53 55 56 56 47 39 34 26 18
93 94 96 90 92 99 100 100 100 100 100 95 90 85 83 86 98 100 98 96 90 78 64 60 75 78 80 82 75 71 66 62 53 46 51 52 52 41 36 31 23 16 14 11
93 94 96 98 100 98 96 99 100 95 95 94 89 93 94 99 98 80 78 72 64 60 61 63 64 70 69 66 63 60 48 46 49 47 44 38 34 27 21 14 12 10 8 6
98 100 100 100 100 100 100 98 100 100 100 99 96 99 100 95 80 71 65 62 58 56 58 64 69 67 64 58 52 49 46 42 37 35 30 24 17 12 11 9 7 6 4 4
99 100 100 100 99 100 100 100 100 98 96 98 94 96 91 74 68 70 63 54 58 62 60 62 60 55 48 47 42 36 32 31 24 20 16 11 9 8 6 5 4 3 3 2
100 99 95 94 93 97 94 94 91 81 72 79 78 70 69 70 59 52 55 55 57 59 56 54 49 42 39 34 31 30 22 17 14 9 8 7 6 4 4 3 3 2 2 2
79 72 67 69 76 86 86 81 75 74 70 65 59 57 53 50 53 58 57 52 52 47 42 38 36 33 34 30 18 15 13 9 8 6 5 4 3 3 2 2 2 2 2 2
62 67 74 80 76 71 70 62 64 66 58 52 47 45 48 52 54 53 51 43 37 36 34 32 34 32 23 16 12 8 7 5 4 4 3 2 2 2 2 2 2 2 2 1
58 54 53 61 67 65 61 54 50 46 46 50 55 56 56 53 47 37 33 36 35 33 34 29 20 14 11 8 7 6 4 3 3 2 2 2 2 2 2 2 1 1 1 1

GFSNGP_250_rhum_084.txt.gz
RH
61 90 96 79 71 98 64 90 100 100 100 63 100 76 68 63 52 44 57 53 54 45 44 47 41 44 48 46 63 60 60 96 100 100 100 100 99 100 96 99 90 100 100 100
45 100 100 78 82 100 57 74 100 100 71 70 100 100 100 100 71 56 40 55 58 55 50 45 40 41 42 42 43 43 64 66 70 81 78 60 69 96 100 100 100 97 75 63
42 82 92 69 100 92 56 52 100 100 94 100 99 100 100 100 100 97 54 45 70 79 74 61 57 52 50 48 45 47 55 62 61 40 40 41 38 35 36 39 39 40 45 48
42 56 63 55 100 97 62 70 100 100 100 95 94 90 100 100 100 68 65 72 56 76 100 88 78 73 64 70 70 64 65 60 57 55 51 48 45 47 51 54 55 55 53 57
34 60 65 71 100 72 63 70 100 100 100 100 100 91 100 100 92 87 75 65 81 90 99 100 99 92 74 75 80 88 80 76 74 64 59 56 53 58 61 63 67 66 65 63
32 61 48 95 100 75 70 92 100 100 100 100 100 100 96 78 84 75 65 99 92 93 84 95 99 100 100 95 74 82 82 84 73 76 76 65 60 58 60 63 68 70 74 78
40 50 51 99 100 88 66 98 100 100 100 100 100 100 100 95 100 100 99 88 95 92 93 81 92 85 95 92 76 71 80 86 71 74 81 83 69 60 57 66 75 77 74 79
47 48 62 100 100 99 81 95 100 100 100 100 100 100 100 100 100 100 96 100 90 99 98 91 83 87 78 86 88 73 78 80 85 88 100 89 79 71 66 72 82 81 80 72
40 45 100 100 100 95 84 91 95 100 100 100 100 100 100 98 100 100 89 92 100 100 100 83 75 87 91 93 85 83 82 79 95 100 100 98 81 77 69 74 78 88 85 70
43 68 100 100 100 100 96 100 100 98 99 100 100 100 89 83 73 72 88 89 99 100 92 81 72 82 90 100 96 77 70 84 100 100 100 99 87 87 78 84 85 82 80 65
52 85 100 100 100 100 96 62 91 100 85 99 100 98 96 96 87 88 90 100 100 100 87 80 73 79 91 95 84 74 94 97 100 100 100 100 93 92 82 91 90 72 62 58
58 94 100 100 100 100 100 100 99 100 100 100 97 81 95 78 65 68 74 93 94 88 84 82 67 71 77 82 81 95 99 100 100 100 100 100 97 84 84 96 80 71 64 70
59 93 100 100 100 100 100 100 100 100 88 75 72 67 55 50 47 49 55 64 80 86 85 77 71 68 75 97 100 100 100 100 100 100 100 100 88 84 98 82 70 70 79 75
64 99 100 100 100 100 100 100 100 82 79 70 59 50 43 50 45 62 65 66 82 87 83 84 71 70 92 100 100 100 98 100 100 100 100 97 95 94 67 68 78 74 73 93
84 100 100 100 100 100 100 100 100 97 81 76 76 68 67 62 64 66 82 94 85 81 83 82 87 100 100 100 94 96 100 100 100 100 100 96 81 68 67 76 76 80 88 86
74 100 100 100 100 100 100 100 100 100 100 99 86 80 77 73 76 84 94 93 90 89 92 92 100 100 100 98 94 98 100 100 100 100 83 74 77 73 73 64 60 69 80 77
93 100 100 100 100 100 100 100 100 100 100 100 100 100 100 100 100 100 100 100 100 99 98 100 100 100 96 93 95 100 100 95 92 88 97 79 63 64 58 51 54 62 61 61
100 100 100 100 99 86 91 91 90 86 85 83 81 81 86 90 96 98 99 99 100 100 100 100 99 89 91 92 99 97 99 100 100 86 68 60 56 51 51 48 47 51 54 44
100 100 100 95 94 90 84 81 75 73 76 83 84 89 98 99 99 100 100 100 100 100 100 99 92 90 92 96 99 97 86 80 63 58 54 50 47 43 39 40 44 40 33 36
100 100 100 100 100 100 100 100 97 99 100 100 100 100 100 100 100 100 100 100 100 100 94 87 86 98 98 86 76 73 61 50 50 48 43 37 32 34 37 36 31 29 28 24
98 100 100 100 100 100 100 100 100 100 100 100 100 100 100 100 100 100 100 100 99 84 73 80 88 86 84 72 59 47 47 45 38 31 30 30 32 32 27 25 24 21 13 8
100 100 100 100 100 100 100 100 100 100 100 100 100 100 100 100 100 100 100 90 80 91 100 96 89 72 61 49 42 42 37 31 28 30 30 29 25 22 22 18 11 7 6 4
95 100 100 100 100 100 100 100 100 100 100 100 100 98 100 99 98 94 90 91 95 94 82 67 61 54 44 40 34 30 28 30 29 26 23 21 21 17 10 6 5 4 3 2
77 96 100 99 98 100 100 100 100 100 99 96 88 84 90 93 89 88 92 83 75 67 59 49 41 38 33 31 30 29 28 25 22 21 20 15 8 6 4 3 3 2 2 2
100 100 100 100 100 100 100 98 91 87 91 95 97 94 88 87 84 80 72 59 56 47 39 39 34 31 28 25 24 23 22 21 18 14 7 5 4 3 2 2 2 2 2 2
100 100 100 100 100 100 100 100 100 99 94 89 84 81 76 69 60 58 56 38 38 43 35 35 30 26 26 24 22 22 19 13 7 5 4 3 3 2 2 2 2 2 2 2
100 100 100 100 100 100 98 93 87 78 74 75 71 58 58 58 45 42 46 42 36 32 26 27 28 24 22 23 18 12 7 5 4 3 3 2 2 2 2 2 1 1 1 1

GFSNGP_250_rhum_087.txt.gz
RH
40 53 57 71 81 79 70 63 69 70 69 55 63 100 100 100 72 64 58 48 36 71 58 50 46 46 45 42 43 48 50 48 48 57 78 87 80 91 98 99 60 74 100 100
21 31 36 51 60 81 70 60 51 66 76 52 46 88 100 100 100 100 99 72 48 66 71 61 59 56 54 51 47 49 44 46 70 64 58 41 39 41 43 45 60 86 99 100
21 35 39 49 41 72 82 82 65 72 93 68 41 57 94 100 100 100 100 100 95 52 66 76 71 71 66 66 60 56 55 57 63 63 50 51 53 55 54 51 49 51 50 49
21 30 39 29 59 76 82 86 90 100 100 59 46 58 100 100 100 100 100 100 98 57 53 66 61 86 99 98 94 83 72 65 68 64 69 67 67 69 66 54 61 64 69 69
20 24 35 36 75 97 88 99 100 98 97 68 42 62 100 100 97 78 100 100 68 61 46 38 47 77 95 93 89 85 86 79 77 76 69 66 84 85 81 84 77 96 89 78
22 28 24 59 67 77 69 85 97 100 100 80 64 42 100 100 100 100 100 95 69 62 52 35 58 64 76 91 98 85 86 92 83 74 81 87 83 74 71 72 72 95 100 98
24 25 29 51 64 48 58 89 100 100 96 71 82 67 100 100 100 100 98 99 100 81 49 63 82 83 85 86 82 83 75 72 82 92 89 80 75 72 84 85 83 90 97 98
19 21 36 49 49 38 76 81 100 100 86 72 94 97 100 100 100 100 100 100 100 98 95 74 82 96 84 79 83 79 74 71 71 80 82 84 76 70 76 86 98 99 97 100
15 24 38 36 53 56 74 90 100 100 94 84 76 100 100 83 99 100 100 100 100 77 74 96 99 94 88 78 80 81 74 78 68 65 68 71 70 74 74 77 77 90 100 100
12 24 29 30 50 67 72 99 100 100 91 100 98 100 100 79 99 100 100 99 85 100 100 99 93 84 78 79 77 75 87 84 76 76 72 73 71 80 87 88 92 100 100 100
12 26 33 38 58 97 100 99 100 100 98 96 100 100 88 64 76 100 100 100 100 100 97 90 76 65 56 54 62 76 82 85 85 81 70 73 85 95 92 92 97 100 100 100
15 30 42 50 56 99 100 100 100 100 100 93 98 100 100 77 81 100 100 90 90 86 92 92 67 50 57 64 67 83 77 86 86 75 70 90 100 100 100 100 100 100 100 100
19 42 65 63 68 98 100 100 100 100 100 93 90 99 100 97 97 84 92 97 96 100 100 83 58 46 51 58 77 85 90 84 82 72 99 100 100 100 100 100 100 100 100 100
29 44 72 85 80 88 100 100 100 100 100 100 100 100 100 100 100 100 100 89 90 80 67 68 50 61 64 65 81 79 86 92 88 100 100 100 100 100 100 100 100 100 99 82
58 70 73 78 90 100 100 100 100 100 100 94 99 94 96 86 100 100 95 84 70 66 57 58 80 74 66 58 62 80 89 95 100 100 100 100 100 100 100 100 93 81 72 60
52 61 70 79 84 98 100 100 100 100 100 100 98 89 98 95 89 82 76 63 69 69 76 89 65 56 58 76 86 96 100 99 100 100 100 100 98 91 88 79 81 71 54 44
55 72 86 100 100 100 100 100 100 100 100 100 100 100 100 100 100 100 100 97 90 91 73 69 62 79 90 100 100 100 100 100 100 100 100 86 91 91 74 74 62 46 42 36
61 76 92 100 100 100 100 100 100 100 100 100 100 100 100 99 98 99 93 84 76 84 85 88 92 95 100 100 100 100 100 100 100 98 94 92 70 68 63 50 38 33 26 26
45 72 99 90 96 99 100 100 100 100 100 100 100 100 100 100 100 100 100 99 98 86 75 85 96 100 100 100 100 100 100 98 100 85 62 63 61 53 42 32 24 21 23 22
38 58 91 86 86 89 100 100 100 100 100 100 100 100 100 100 100 91 89 86 73 85 90 96 100 100 100 100 100 96 96 87 72 63 58 56 49 34 25 20 22 21 20 21
33 72 91 92 97 95 100 100 100 100 100 100 100 100 98 96 81 75 84 74 81 93 97 100 100 100 100 92 96 94 84 64 59 59 56 36 27 20 19 19 18 20 18 12
58 94 100 98 90 90 99 100 100 100 100 96 90 86 81 79 83 90 96 94 100 100 99 98 100 95 98 96 83 68 60 57 58 40 30 22 18 18 18 19 17 10 6 5
49 69 58 72 82 96 100 100 99 98 99 100 98 98 100 100 100 100 100 100 100 100 100 99 100 89 81 68 59 58 58 38 27 22 18 19 20 19 17 10 6 5 4 3
42 48 58 70 88 100 100 100 100 100 100 100 100 100 100 100 100 100 100 98 98 98 94 83 77 66 59 59 53 31 25 21 19 21 21 20 17 9 6 5 4 3 2 2
40 41 56 73 85 100 100 100 100 100 100 100 100 100 98 97 95 94 98 98 86 74 69 64 59 55 39 25 22 20 20 22 22 20 16 9 6 5 4 3 2 2 2 2
50 54 62 70 78 100 100 100 100 100 100 100 99 99 98 96 92 82 75 71 69 63 57 45 28 23 22 23 25 24 24 22 18 10 6 5 4 3 3 2 2 2 1 1
53 63 75 83 89 92 95 100 100 100 100 99 96 89 82 80 79 76 69 59 48 32 25 24 24 27 30 27 27 26 20 10 6 5 4 4 3 2 2 2 2 2 2 1